When you browse on this site, cookies collect data to enhance your experience and personalize the content and advertising you see.
Visit our Privacy Policy to learn more. By continuing to use the site, you agree to this use of cookies and data.
  • In Lithuania
  • List of Countries
  • For 7 days
  • Water Temperature
  • Weather Map
  • Weather Widgets
  • user-avatar
    Login

    Hourly Weather Presov

    Today, 30 May, Saturday

    Time Temperature Precipitation Wind Pressure Humidity
    00:00 +7°C° 0 mm 2 mps 736 mmHg 87%
    01:00 +7°C° 0 mm 2 mps 736 mmHg 89%
    02:00 +7°C° 0 mm 2 mps 736 mmHg 90%
    03:00 +7°C° 0 mm 2 mps 735 mmHg 92%
    04:00 +7°C° 0 mm 2 mps 735 mmHg 93%
    05:00 +8°C° 0 mm 3 mps 735 mmHg 85%
    06:00 +10°C° 0 mm 3 mps 735 mmHg 78%
    07:00 +12°C° 0 mm 4 mps 735 mmHg 70%
    08:00 +13°C° 0.1 mm 4 mps 735 mmHg 67%
    09:00 +13°C° 0.1 mm 4 mps 735 mmHg 65%
    10:00 +14°C° 0.1 mm 4 mps 735 mmHg 62%
    11:00 +15°C° 0.4 mm 4 mps 734 mmHg 63%
    12:00 +15°C° 0.4 mm 4 mps 734 mmHg 64%
    13:00 +15°C° 0.4 mm 4 mps 734 mmHg 65%
    14:00 +14°C° 0.3 mm 5 mps 734 mmHg 70%
    15:00 +13°C° 0.3 mm 5 mps 734 mmHg 74%
    16:00 +13°C° 0.3 mm 5 mps 733 mmHg 78%
    17:00 +12°C° 0.1 mm 4 mps 733 mmHg 80%
    18:00 +11°C° 0.1 mm 3 mps 733 mmHg 83%
    19:00 +10°C° 0.1 mm 3 mps 733 mmHg 85%
    20:00 +10°C° 0.2 mm 2 mps 733 mmHg 88%
    21:00 +9°C° 0.2 mm 2 mps 733 mmHg 90%
    22:00 +9°C° 0.2 mm 2 mps 733 mmHg 92%
    23:00 +9°C° 0.2 mm 2 mps 732 mmHg 93%

    Tomorrow, 31 May, Sunday

    Time Temperature Precipitation Wind Pressure Humidity
    00:00 +9°C° 0.2 mm 2 mps 732 mmHg 93%
    01:00 +9°C° 0.2 mm 2 mps 731 mmHg 94%
    02:00 +9°C° 0.5 mm 2 mps 731 mmHg 95%
    03:00 +9°C° 0.5 mm 3 mps 730 mmHg 95%
    04:00 +9°C° 0.5 mm 3 mps 730 mmHg 95%
    05:00 +9°C° 0.5 mm 3 mps 730 mmHg 95%
    06:00 +9°C° 0.5 mm 3 mps 730 mmHg 94%
    07:00 +9°C° 0.5 mm 3 mps 730 mmHg 94%
    08:00 +10°C° 0.3 mm 3 mps 730 mmHg 93%
    09:00 +10°C° 0.3 mm 3 mps 730 mmHg 92%
    10:00 +10°C° 0.3 mm 4 mps 730 mmHg 91%
    11:00 +11°C° 0.1 mm 4 mps 730 mmHg 87%
    12:00 +11°C° 0.1 mm 4 mps 730 mmHg 84%
    13:00 +12°C° 0.1 mm 4 mps 730 mmHg 81%
    14:00 +12°C° 0.1 mm 4 mps 731 mmHg 80%
    15:00 +12°C° 0.1 mm 4 mps 731 mmHg 79%
    16:00 +13°C° 0.1 mm 4 mps 731 mmHg 78%
    17:00 +12°C° 0.2 mm 4 mps 731 mmHg 82%
    18:00 +11°C° 0.2 mm 3 mps 731 mmHg 87%
    19:00 +11°C° 0.2 mm 3 mps 731 mmHg 92%
    20:00 +11°C° 0.2 mm 3 mps 731 mmHg 93%
    21:00 +10°C° 0.2 mm 3 mps 732 mmHg 94%
    22:00 +10°C° 0.2 mm 3 mps 732 mmHg 96%
    23:00 +10°C° 0.3 mm 4 mps 732 mmHg 96%

    Day after tomorrow, 1 June, Monday

    Time Temperature Precipitation Wind Pressure Humidity
    00:00 +10°C° 0.3 mm 4 mps 732 mmHg 95%
    01:00 +10°C° 0.3 mm 4 mps 733 mmHg 95%
    02:00 +10°C° 0 mm 4 mps 733 mmHg 95%
    03:00 +8°C° 0 mm 4 mps 733 mmHg 95%
    04:00 +7°C° 0 mm 4 mps 733 mmHg 95%
    05:00 +8°C° 0 mm 5 mps 733 mmHg 91%
    06:00 +9°C° 0 mm 5 mps 734 mmHg 87%
    07:00 +10°C° 0 mm 6 mps 734 mmHg 83%
    08:00 +13°C° 0.1 mm 6 mps 734 mmHg 74%
    09:00 +14°C° 0.1 mm 7 mps 734 mmHg 66%
    10:00 +15°C° 0.1 mm 7 mps 735 mmHg 58%
    11:00 +15°C° 0.1 mm 7 mps 735 mmHg 56%
    12:00 +15°C° 0.1 mm 7 mps 735 mmHg 54%
    13:00 +15°C° 0.1 mm 7 mps 735 mmHg 53%
    14:00 +15°C° 0 mm 7 mps 735 mmHg 54%
    15:00 +15°C° 0 mm 7 mps 735 mmHg 56%
    16:00 +15°C° 0 mm 6 mps 735 mmHg 58%
    17:00 +13°C° 0 mm 6 mps 735 mmHg 64%
    18:00 +12°C° 0 mm 5 mps 735 mmHg 71%
    19:00 +10°C° 0 mm 4 mps 735 mmHg 78%
    20:00 +9°C° 0 mm 3 mps 735 mmHg 82%
    21:00 +8°C° 0 mm 3 mps 736 mmHg 87%
    22:00 +7°C° 0 mm 3 mps 736 mmHg 91%
    23:00 +6°C° 0 mm 2 mps 735 mmHg 92%

    2 June, Tuesday

    Time Temperature Precipitation Wind Pressure Humidity
    00:00 +6°C° 0 mm 2 mps 735 mmHg 92%
    01:00 +6°C° 0 mm 2 mps 735 mmHg 92%
    02:00 +5°C° 0 mm 2 mps 734 mmHg 93%
    03:00 +5°C° 0 mm 2 mps 734 mmHg 93%
    04:00 +5°C° 0 mm 2 mps 733 mmHg 93%
    05:00 +6°C° 0.6 mm 2 mps 733 mmHg 94%
    06:00 +7°C° 0.6 mm 2 mps 733 mmHg 94%
    07:00 +8°C° 0.6 mm 2 mps 733 mmHg 94%
    08:00 +10°C° 0.2 mm 4 mps 733 mmHg 82%
    09:00 +10°C° 0.2 mm 5 mps 733 mmHg 70%
    10:00 +13°C° 0.2 mm 6 mps 733 mmHg 58%
    11:00 +13°C° 0.1 mm 6 mps 733 mmHg 59%
    12:00 +13°C° 0.1 mm 6 mps 733 mmHg 60%
    13:00 +13°C° 0.1 mm 6 mps 732 mmHg 61%
    14:00 +11°C° 0.2 mm 6 mps 732 mmHg 66%
    15:00 +12°C° 0.2 mm 5 mps 732 mmHg 70%
    16:00 +11°C° 0.2 mm 4 mps 731 mmHg 75%
    17:00 +11°C° 0.2 mm 4 mps 731 mmHg 80%
    18:00 +10°C° 0.2 mm 3 mps 731 mmHg 85%
    19:00 +9°C° 0.2 mm 3 mps 730 mmHg 91%
    20:00 +9°C° 0.5 mm 2 mps 730 mmHg 93%
    21:00 +9°C° 0.5 mm 2 mps 730 mmHg 95%
    22:00 +8°C° 0.5 mm 2 mps 730 mmHg 97%
    23:00 +8°C° 0.3 mm 2 mps 729 mmHg 97%

    3 June, Wednesday

    Time Temperature Precipitation Wind Pressure Humidity
    00:00 +8°C° 0.3 mm 2 mps 729 mmHg 97%
    01:00 +9°C° 0.3 mm 2 mps 729 mmHg 97%
    02:00 +8°C° 0.5 mm 2 mps 728 mmHg 97%
    03:00 +8°C° 0.5 mm 2 mps 728 mmHg 97%
    04:00 +8°C° 0.5 mm 2 mps 728 mmHg 97%
    05:00 +9°C° 0.7 mm 2 mps 728 mmHg 97%
    06:00 +9°C° 0.7 mm 2 mps 728 mmHg 96%
    07:00 +9°C° 0.7 mm 2 mps 728 mmHg 96%
    08:00 +9°C° 0.4 mm 2 mps 728 mmHg 96%
    09:00 +9°C° 0.4 mm 2 mps 729 mmHg 95%
    10:00 +9°C° 0.4 mm 2 mps 729 mmHg 95%
    11:00 +10°C° 0.2 mm 2 mps 729 mmHg 95%
    12:00 +10°C° 0.2 mm 2 mps 729 mmHg 95%
    13:00 +10°C° 0.2 mm 2 mps 729 mmHg 94%
    14:00 +10°C° 0.1 mm 2 mps 729 mmHg 93%
    15:00 +10°C° 0.1 mm 2 mps 729 mmHg 93%
    16:00 +12°C° 0.1 mm 2 mps 729 mmHg 92%
    17:00 +10°C° 0 mm 2 mps 729 mmHg 92%
    18:00 +10°C° 0 mm 2 mps 729 mmHg 92%
    19:00 +11°C° 0 mm 1 mps 729 mmHg 93%
    20:00 +10°C° 0 mm 1 mps 729 mmHg 94%
    21:00 +9°C° 0 mm 1 mps 729 mmHg 95%
    22:00 +9°C° 0 mm 1 mps 729 mmHg 96%
    23:00 +9°C° 0 mm 1 mps 729 mmHg 95%

    4 June, Thursday

    Time Temperature Precipitation Wind Pressure Humidity
    00:00 +9°C° 0 mm 1 mps 729 mmHg 94%
    01:00 +9°C° 0 mm 1 mps 729 mmHg 94%
    02:00 +9°C° 0 mm 1 mps 729 mmHg 94%
    03:00 +9°C° 0 mm 1 mps 729 mmHg 94%
    04:00 +8°C° 0 mm 1 mps 729 mmHg 94%
    05:00 +10°C° 0.1 mm 1 mps 729 mmHg 91%
    06:00 +10°C° 0.1 mm 0 mps 729 mmHg 87%
    07:00 +11°C° 0.1 mm 0 mps 729 mmHg 84%
    08:00 +13°C° 0.2 mm 0 mps 729 mmHg 82%
    09:00 +15°C° 0.2 mm 1 mps 730 mmHg 79%
    10:00 +16°C° 0.2 mm 1 mps 730 mmHg 77%
    11:00 +16°C° 0.5 mm 1 mps 729 mmHg 76%
    12:00 +18°C° 0.5 mm 1 mps 729 mmHg 75%
    13:00 +18°C° 0.5 mm 2 mps 729 mmHg 74%
    14:00 +18°C° 0.5 mm 2 mps 729 mmHg 76%
    15:00 +17°C° 0.5 mm 2 mps 729 mmHg 78%
    16:00 +17°C° 0.5 mm 2 mps 729 mmHg 79%
    17:00 +16°C° 0.5 mm 2 mps 729 mmHg 84%
    18:00 +15°C° 0.5 mm 1 mps 728 mmHg 88%
    19:00 +14°C° 0.5 mm 1 mps 728 mmHg 92%
    20:00 +13°C° 0 mm 1 mps 729 mmHg 93%
    21:00 +12°C° 0 mm 1 mps 729 mmHg 94%
    22:00 +10°C° 0 mm 0 mps 729 mmHg 95%
    23:00 +10°C° 0 mm 1 mps 729 mmHg 95%
    Show more